Hourly Weather Roundup
Issued by NWS Central Illinois

Home | Current Version | Previous Version | Text Only | Print | Product List | Glossary On
Versions: 1 2 3 4 5 6 7 8 9 10 11 12 13 14 15 16 17 18 19 20 21 22 23 24 25 26 27 28 29 30 31 32 33 34 35 36 37 38 39 40 41 42 43 44 45 46 47 48 49 50
000
NZUS43 KILX 281110
HWRILX

AREA WEATHER ROUNDUP
NATIONAL WEATHER SERVICE, LINCOLN IL
600 AM CDT TUE JUL 28 2015


CITY           SKY/WX    TMP DP  RH WIND       PRES   REMARKS
BLOOMINGTON    CLEAR     70  69  96 E3        29.99R
CHAMPAIGN      PTCLDY    72  70  93 E5        29.97R FOG
DANVILLE       MOCLDY    69  69  99 CALM      29.95R FOG
DECATUR        PTCLDY    70  69  97 NE3       29.96R FOG
EFFINGHAM      CLOUDY    73  70  89 CALM      29.97R FOG
FLORA          MOCLDY    73  72  97 CALM      29.96R
GALESBURG      CLEAR     71  70  96 E3        29.95S FOG
JACKSONVILLE   CLEAR     72  71  96 CALM      29.94R
LACON          CLEAR     68  66  92 CALM      29.95S
LAWRENCEVILLE  MOCLDY    74  72  93 CALM      29.96R FOG
LITCHFIELD     MOCLDY    71  69  95 CALM      29.95F
$$


CITY           SKY/WX    TMP DP  RH WIND       PRES   REMARKS
LINCOLN          N/A     71  70  95 CALM      29.96R FOG
MACOMB         CLOUDY    71  71 100 CALM      29.97R FOG
MATTOON        PTCLDY    72  69  90 CALM      29.96R FOG
MT CARMEL AP   MOCLDY    73  70  88 CALM      29.96R FOG
OLNEY-NOBLE AP CLOUDY    72  72 100 CALM      29.97R
PARIS            N/A     72  72  99 CALM      29.98R FOG
PEORIA         CLEAR     75  71  87 E5        29.95S FOG
PONTIAC        CLEAR     69  68  96 E5        29.98S
RANTOUL        PTCLDY    73  71  93 CALM      29.97R FOG
ROBINSON       MOCLDY    71  70  98 CALM      29.96S FOG
SPRINGFIELD    PTCLDY    75  73  93 CALM      29.95S
TAYLORVILLE    PTCLDY    72  72 100 CALM      29.95S FOG
$$

...REGIONAL REPORTS...


CITY           SKY/WX    TMP DP  RH WIND       PRES   REMARKS
CHICAGO O`HARE PTCLDY    71  66  84 CALM      29.99R
KANKAKEE       PTCLDY    68  65  91 CALM      29.99S
MOLINE         CLEAR     70  67  90 E5        29.94S
MOUNT STERLING NOT AVBL
MOUNT VERNON   MOCLDY    73  68  83 CALM      29.97R
PITTSFIELD     CLEAR     71  69  95 CALM      29.95S
QUINCY         CLEAR     73  69  87 SE6       29.93S
ROCKFORD       PTCLDY    69  63  81 E6        29.99F
$$


CITY           SKY/WX    TMP DP  RH WIND       PRES   REMARKS
BURLINGTON     PTCLDY    74  74 100 SE6       29.93R FOG
CEDAR RAPIDS   MOCLDY    74  73  97 S7        29.91S THUNDER
DES MOINES     PTCLDY    74  69  85 S10       29.84F
KIRKSVILLE     CLEAR     72  69  90 SE6       29.93S
OTTUMWA        CLEAR     72  71  97 S8        29.88S
ST LOUIS       MOCLDY    76  71  85 E5        29.95R
$$


CITY           SKY/WX    TMP DP  RH WIND       PRES   REMARKS
TERRE HAUTE    CLOUDY    73  72  96 CALM      29.97R FOG
EVANSVILLE     PTCLDY    74  71  91 CALM      29.97R FOG
INDIANAPOLIS   MOCLDY    74  70  87 NE6       29.98R FOG
LAFAYETTE      CLEAR     69  66  90 E5        29.98R
MADISON        PTCLDY    69  61  75 SE9       29.97F
MILWAUKEE      PTCLDY    67  62  84 CALM      30.00S
$$





USA.gov is the U.S. government's official web portal to all federal, state and local government web resources and services.